Date String (YYYY-MM-DD hh:mm:ss) UTC,Instrument flags,Ambient pressure (hPa),Sample flow (lpm),Bypass flow (lpm),Sample temperature (°C),Ambient temperature (°C),ASC tube jacket temperature (°C),LED temperature (°C),Box temperature (°C),Sample RH (%),Span deviation,Mass concentration (μg/m³),Mass concentration (μg/m³),Mass concentration (μg/m³)
DateTimeUTC,F1_M11,P_M11,Q1_M11,Q2_M11,T1_M11,T2_M11,T3_M11,T4_M11,T5_M11,U1_M11,ZSPAN_M11,X0_M11,X2_M11,X1_M11
2022-03-05 02:00:00,,0813.8,5.01,0.00,29.1,28.3,00.0,38.2,30.8,09.6,0000.0,0010.54,0004.61,0003.80
2022-03-05 02:01:00,,0813.8,5.00,0.00,29.1,28.3,00.0,38.2,30.8,09.6,0000.0,0010.70,0004.67,0003.81
2022-03-05 02:02:00,,0814.0,4.99,0.00,29.1,28.3,00.0,38.1,30.8,09.7,0000.0,0011.29,0004.64,0003.80
2022-03-05 02:03:00,,0813.9,5.00,0.00,29.1,28.3,00.0,38.1,30.8,09.7,0000.0,0011.46,0004.62,0003.80
2022-03-05 02:04:00,,0814.0,4.99,0.00,29.1,28.3,00.0,38.1,30.8,09.7,0000.0,0012.02,0004.59,0003.80
2022-03-05 02:05:00,,0814.1,5.00,0.00,29.1,28.3,00.0,38.1,30.8,09.8,0000.0,0011.66,0004.54,0003.79
2022-03-05 02:06:00,,0814.3,5.00,0.00,29.1,28.3,00.0,38.1,30.8,09.8,0000.0,0011.41,0004.51,0003.77
2022-03-05 02:07:00,,0814.1,5.02,0.00,29.1,28.3,00.0,38.1,30.8,09.8,0000.0,0011.06,0004.46,0003.76
2022-03-05 02:08:00,,0813.9,4.99,0.00,29.1,28.3,00.0,38.1,30.8,09.9,0000.0,0011.74,0004.45,0003.74
2022-03-05 02:09:00,,0814.0,5.02,0.00,29.1,28.3,00.0,38.1,30.8,09.9,0000.0,0012.57,0004.46,0003.72
2022-03-05 02:10:00,,0814.0,4.99,0.00,29.1,28.3,00.0,38.1,30.8,09.9,0000.0,0013.29,0004.47,0003.71
2022-03-05 02:11:00,,0814.0,5.01,0.00,29.1,28.3,00.0,38.1,30.8,09.9,0000.0,0013.75,0004.47,0003.70
2022-03-05 02:12:00,,0814.1,4.99,0.00,29.1,28.3,00.0,38.1,30.8,09.9,0000.0,0014.20,0004.43,0003.70
2022-03-05 02:13:00,,0814.0,5.01,0.00,29.1,28.2,00.0,38.1,30.8,09.9,0000.0,0014.21,0004.44,0003.69
2022-03-05 02:14:00,,0814.0,5.00,0.00,29.1,28.2,00.0,38.1,30.8,09.9,0000.0,0014.47,0004.48,0003.70
2022-03-05 02:15:00,,0814.1,4.99,0.00,29.1,28.2,00.0,38.1,30.8,09.9,0000.0,0014.70,0004.51,0003.71
2022-03-05 02:16:00,,0814.0,5.00,0.00,29.1,28.2,00.0,38.1,30.8,09.8,0000.0,0015.06,0004.56,0003.72
2022-03-05 02:17:00,,0814.0,4.99,0.00,29.1,28.2,00.0,38.1,30.8,09.8,0000.0,0015.63,0004.59,0003.77
2022-03-05 02:18:00,,0814.0,5.01,0.00,29.1,28.2,00.0,38.1,30.8,09.7,0000.0,0016.48,0004.65,0003.80
2022-03-05 02:19:00,,0814.1,4.99,0.00,29.1,28.2,00.0,38.1,30.8,09.7,0000.0,0016.08,0004.71,0003.82
2022-03-05 02:20:00,,0814.0,5.01,0.00,29.1,28.2,00.0,38.1,30.8,09.6,0000.0,0015.52,0004.71,0003.83
2022-03-05 02:21:00,,0814.0,4.99,0.00,29.0,28.2,00.0,38.1,30.8,09.6,0000.0,0014.97,0004.70,0003.84
2022-03-05 02:22:00,,0814.0,5.01,0.00,29.0,28.2,00.0,38.1,30.7,09.6,0000.0,0014.66,0004.69,0003.84
2022-03-05 02:23:00,,0814.0,4.99,0.00,29.0,28.2,00.0,38.1,30.7,09.6,0000.0,0013.97,0004.72,0003.83
2022-03-05 02:24:00,,0814.0,5.01,0.00,29.0,28.2,00.0,38.1,30.8,09.6,0000.0,0014.15,0004.69,0003.83
2022-03-05 02:25:00,,0814.0,4.98,0.00,29.0,28.2,00.0,38.1,30.7,09.6,0000.0,0013.12,0004.62,0003.82
2022-03-05 02:26:00,,0813.9,5.00,0.00,29.0,28.2,00.0,38.1,30.8,09.6,0000.0,0012.81,0004.59,0003.80
2022-03-05 02:27:00,,0813.9,4.98,0.00,29.0,28.2,00.0,38.1,30.8,09.6,0000.0,0011.53,0004.54,0003.78
2022-03-05 02:28:00,,0813.9,5.01,0.00,29.0,28.2,00.0,38.1,30.8,09.6,0000.0,0011.04,0004.52,0003.73
2022-03-05 02:29:00,,0813.9,5.00,0.00,29.0,28.2,00.0,38.1,30.8,09.6,0000.0,0010.22,0004.47,0003.68
2022-03-05 02:30:00,,0814.4,5.00,0.00,29.1,28.2,00.0,38.1,30.8,09.7,0000.0,0010.69,0004.44,0003.66
2022-03-05 02:31:00,,0814.2,4.99,0.00,29.1,28.3,00.0,38.1,30.8,09.6,0000.0,0011.04,0004.42,0003.63
2022-03-05 02:32:00,,0814.2,5.02,0.00,29.0,28.3,00.0,38.1,30.8,09.6,0000.0,0010.82,0004.41,0003.62
2022-03-05 02:33:00,,0813.9,4.99,0.00,29.0,28.2,00.0,38.1,30.8,09.5,0000.0,0010.44,0004.44,0003.62
2022-03-05 02:34:00,,0813.9,5.00,0.00,29.0,28.2,00.0,38.1,30.8,09.5,0000.0,0010.52,0004.44,0003.62
2022-03-05 02:35:00,,0814.0,5.01,0.00,29.0,28.2,00.0,38.1,30.8,09.6,0000.0,0010.01,0004.43,0003.62
2022-03-05 02:36:00,,0814.0,4.99,0.00,29.0,28.2,00.0,38.1,30.8,09.6,0000.0,0010.53,0004.47,0003.63
2022-03-05 02:37:00,,0814.0,5.01,0.00,29.0,28.2,00.0,38.1,30.8,09.6,0000.0,0010.72,0004.49,0003.64
2022-03-05 02:38:00,,0814.0,4.99,0.00,29.0,28.2,00.0,38.1,30.8,09.5,0000.0,0010.74,0004.52,0003.65
2022-03-05 02:39:00,,0814.0,5.00,0.00,29.0,28.2,00.0,38.1,30.8,09.5,0000.0,0010.91,0004.49,0003.66
2022-03-05 02:40:00,,0814.1,5.00,0.00,29.0,28.1,00.0,38.1,30.7,09.5,0000.0,0011.04,0004.48,0003.67
2022-03-05 02:41:00,,0814.1,5.00,0.00,29.0,28.1,00.0,38.1,30.6,09.7,0000.0,0010.51,0004.45,0003.66
2022-03-05 02:42:00,,0814.1,5.01,0.00,28.9,28.1,00.0,38.0,30.6,09.9,0000.1,0009.83,0004.42,0003.64
2022-03-05 02:43:00,,0814.2,4.99,0.00,28.9,28.0,00.0,38.0,30.6,10.1,0000.0,0009.46,0004.37,0003.61
2022-03-05 02:44:00,,0814.1,5.02,0.00,28.8,27.9,00.0,38.0,30.5,10.3,0000.0,0009.43,0004.31,0003.56
2022-03-05 02:45:00,,0814.2,4.99,0.00,28.8,27.9,00.0,38.0,30.5,10.4,0000.0,0009.35,0004.28,0003.52
2022-03-05 02:46:00,,0814.3,5.00,0.00,28.8,27.9,00.0,38.0,30.5,10.5,0000.0,0009.27,0004.21,0003.49
2022-03-05 02:47:00,,0814.2,5.00,0.00,28.8,27.9,00.0,37.9,30.5,10.4,0000.0,0009.01,0004.16,0003.44
2022-03-05 02:48:00,,0814.1,5.00,0.00,28.7,27.9,00.0,37.9,30.5,10.3,0000.0,0008.66,0004.09,0003.40
2022-03-05 02:49:00,,0814.1,5.00,0.00,28.7,27.8,00.0,37.9,30.5,10.4,0000.0,0008.96,0004.05,0003.36
2022-03-05 02:50:00,,0814.3,4.99,0.00,28.7,27.8,00.0,37.9,30.4,09.9,0000.0,0009.22,0004.02,0003.32
2022-03-05 02:51:00,,0814.1,5.02,0.00,28.7,27.8,00.0,37.9,30.4,09.7,0000.0,0010.34,0004.03,0003.30
2022-03-05 02:52:00,,0814.1,4.99,0.00,28.7,27.8,00.0,37.9,30.4,09.8,0000.0,0010.95,0004.07,0003.29
2022-03-05 02:53:00,,0814.1,4.99,0.00,28.7,27.8,00.0,37.8,30.4,10.2,0000.0,0010.93,0004.07,0003.28
2022-03-05 02:54:00,,0814.1,5.00,0.00,28.7,27.9,00.0,37.8,30.4,10.2,0000.0,0011.66,0004.10,0003.27
2022-03-05 02:55:00,,0814.1,4.98,0.00,28.7,27.8,00.0,37.8,30.4,09.8,0000.0,0012.01,0004.09,0003.27
2022-03-05 02:56:00,,0814.1,5.01,0.00,28.7,27.8,00.0,37.8,30.4,09.9,0000.0,0011.92,0004.08,0003.25
2022-03-05 02:57:00,,0814.2,4.98,0.00,28.6,27.8,00.0,37.8,30.3,09.6,0000.0,0011.86,0004.08,0003.24
2022-03-05 02:58:00,,0814.4,5.01,0.00,28.6,27.7,00.0,37.8,30.3,09.5,0000.0,0011.67,0004.04,0003.22
2022-03-05 02:59:00,,0814.3,5.01,0.00,28.6,27.7,00.0,37.8,30.3,09.5,0000.0,0011.32,0003.98,0003.20
